Theta_e
341 341 342 343 345 344 342 341 340 337 336 340 343 344 344 344 343 345 346 345 343 344 345 346 346 346 345 343 343 344 346 347 350 348 343 341 340 337 336 336 336 337 337 337 337 337 337 337 337 337 336 334 332 333 333 331 332 334 334 334 334 334 335 341 346 346 346 346 345 346 345 346 346 346 346 345 345 345 346 346 346 347 347 346 345
342 343 342 342 344 344 342 342 341 338 336 337 341 343 344 344 343 345 346 343 344 346 345 346 346 346 345 343 344 345 346 347 347 348 344 342 342 340 338 337 336 336 336 336 336 336 336 336 337 337 337 336 333 332 332 332 333 335 336 336 337 336 336 342 346 345 345 346 345 345 345 345 345 346 346 345 346 346 346 346 346 345 345 344 344
343 344 343 342 344 343 342 341 341 340 336 336 341 345 343 342 343 344 343 343 345 345 345 346 346 346 345 344 344 345 345 346 346 348 346 345 344 343 341 339 337 336 336 336 335 335 335 335 335 336 337 337 335 333 332 331 332 333 334 336 338 339 339 342 344 344 345 345 345 345 345 345 346 346 346 345 346 346 347 346 345 345 344 343 343
343 343 342 342 343 343 342 340 340 340 338 337 340 343 342 341 342 343 342 343 345 345 345 346 346 346 346 344 344 344 345 345 345 348 348 346 345 344 344 342 339 337 337 336 335 336 335 334 334 334 334 336 336 335 333 332 331 331 332 334 336 337 339 341 342 343 344 344 344 344 344 345 345 346 346 346 346 346 346 345 345 344 344 343 343
344 344 343 342 342 343 342 341 340 340 339 339 339 340 340 340 342 343 343 343 344 345 345 346 345 346 346 344 344 344 344 344 345 346 347 348 346 345 346 344 341 340 339 339 338 337 336 334 332 332 332 333 334 335 335 333 332 331 331 331 332 333 335 337 338 340 341 342 342 342 342 343 343 345 345 345 346 345 345 345 344 344 344 343 342
344 343 343 342 342 342 342 342 342 341 341 341 341 339 336 338 342 343 344 343 343 344 345 344 344 344 345 344 344 345 344 344 345 345 346 348 347 345 345 344 342 341 340 341 341 340 340 338 335 332 331 332 332 333 334 334 334 333 332 331 330 330 330 331 332 334 336 337 339 339 340 340 340 341 342 343 344 344 344 344 343 342 342 342 341
345 343 342 342 341 341 342 342 342 343 343 342 341 338 335 337 340 341 342 341 341 343 345 343 342 343 344 344 344 345 344 344 344 345 346 347 347 345 345 344 343 342 342 342 342 342 342 341 339 337 333 332 332 332 332 332 333 334 334 333 332 331 330 329 328 328 329 329 330 332 333 335 337 338 339 341 342 342 342 342 341 341 341 341 341
346 344 342 342 340 341 342 342 343 345 346 346 342 338 337 337 340 341 340 340 342 344 344 344 344 344 343 344 344 344 344 344 344 345 346 346 347 348 347 345 344 344 344 344 344 344 343 343 343 343 339 336 334 333 333 332 332 333 333 335 334 333 333 331 330 328 327 326 325 325 325 326 328 331 335 337 339 340 340 340 340 340 341 341 341
347 345 344 343 341 341 341 341 344 347 348 348 345 340 338 337 339 343 343 342 344 345 343 344 345 344 342 343 344 343 344 345 344 345 345 346 346 347 348 346 344 343 343 344 344 344 344 344 344 345 344 342 339 336 335 334 333 333 333 333 334 334 335 334 333 332 331 330 327 326 324 321 320 321 326 330 333 335 337 338 339 340 340 340 339
347 347 347 346 343 341 341 342 344 347 348 350 349 343 341 340 340 344 345 343 345 344 343 344 343 344 343 343 344 343 344 345 344 344 345 345 345 346 346 346 346 343 342 342 342 343 344 344 345 345 345 344 344 342 339 337 335 335 334 334 334 333 333 334 334 335 334 334 332 331 328 326 323 320 321 323 325 328 331 334 336 337 337 337 337
348 349 349 349 346 342 341 342 343 347 349 350 348 344 343 344 344 345 344 345 345 345 343 343 343 344 343 343 343 342 343 344 344 344 344 344 344 345 344 345 346 345 344 342 341 342 343 343 344 344 344 345 345 345 344 342 340 338 337 336 336 335 334 333 333 333 334 334 334 334 333 331 329 326 324 323 324 325 324 325 327 329 330 330 331
349 350 350 349 347 343 341 342 344 346 349 350 348 346 346 346 343 344 344 344 345 345 344 343 343 343 343 341 341 342 343 344 344 344 344 344 344 345 344 344 344 344 345 344 343 342 341 342 343 342 344 344 344 344 344 344 343 342 341 340 339 338 338 336 335 334 333 333 333 334 334 334 334 333 331 330 328 327 324 322 321 320 320 319 319
349 349 350 350 348 344 342 342 342 344 348 351 350 346 346 347 344 343 343 344 345 345 344 343 342 343 342 339 338 341 344 345 344 344 344 344 344 344 343 343 343 344 344 345 346 345 343 341 341 342 343 343 343 342 343 343 344 344 343 343 342 341 341 341 339 338 336 334 333 333 333 334 335 335 335 335 333 331 330 328 326 323 320 317 316
349 350 350 350 349 345 342 342 342 342 344 346 346 343 343 346 346 343 344 345 345 345 345 342 340 340 339 339 338 340 344 345 345 345 344 344 343 343 344 343 343 342 343 343 344 345 345 342 340 340 341 342 342 342 342 343 343 344 344 344 344 343 343 342 342 342 340 339 337 335 335 334 334 334 335 336 335 335 333 332 331 330 327 324 321
350 350 350 349 349 345 343 342 342 341 342 341 341 341 342 346 347 345 345 344 344 344 344 342 339 339 340 340 340 342 344 345 345 344 344 344 343 343 342 343 343 342 342 343 342 343 344 343 342 341 341 341 341 340 341 341 342 342 342 342 343 344 344 343 343 343 342 343 341 340 338 337 336 335 334 335 335 336 335 335 334 334 333 331 329
350 350 350 350 349 346 343 343 342 341 342 341 340 343 345 348 347 346 347 347 345 344 344 342 341 342 343 342 341 342 343 343 344 343 343 343 343 342 342 342 342 342 342 342 342 342 343 344 343 343 343 343 342 341 340 341 341 340 341 342 342 342 343 343 343 344 343 344 343 342 342 341 340 339 337 335 335 335 335 335 335 335 336 335 334
350 351 351 351 349 345 342 343 342 342 342 341 342 345 347 347 346 344 344 347 348 346 345 344 344 346 346 344 341 340 340 340 341 341 341 341 342 342 341 342 342 342 342 342 341 341 341 342 342 343 344 346 345 344 343 344 344 343 343 344 344 342 342 343 343 343 344 344 344 344 344 343 343 342 341 339 337 336 335 335 335 335 335 336 336
350 350 351 351 347 342 342 343 342 343 341 342 344 346 347 347 346 344 343 345 348 348 345 345 346 346 346 345 342 340 339 339 339 340 339 339 339 340 341 342 342 342 342 342 342 342 342 341 341 342 343 344 346 346 345 345 345 344 344 344 345 344 343 342 342 344 344 344 345 345 344 344 344 344 344 343 341 340 337 336 335 335 334 335 335
350 350 351 351 347 342 342 344 344 342 342 342 346 347 348 349 349 348 348 348 349 348 347 347 347 347 346 345 343 341 340 341 341 340 339 340 340 341 340 341 342 342 341 342 342 342 342 342 341 341 342 343 345 345 345 345 345 344 343 343 344 345 345 344 344 345 344 344 344 344 345 344 345 344 344 344 344 343 342 339 337 335 335 335 335
350 351 351 352 350 344 344 346 344 343 342 343 347 348 349 352 352 352 352 350 350 349 348 349 348 346 345 345 344 343 341 342 342 341 341 342 341 341 341 341 341 341 341 341 342 342 343 343 343 342 342 343 344 346 346 347 346 345 345 344 343 345 347 347 347 346 344 343 343 343 344 344 344 344 344 345 344 344 344 343 341 339 337 336 336
351 351 352 352 351 346 345 346 345 344 343 342 345 347 349 352 353 352 352 351 350 349 348 349 348 347 345 345 345 344 343 343 343 343 343 343 342 342 341 341 341 340 340 341 341 342 342 343 344 344 344 344 345 346 347 347 347 347 346 346 345 346 347 348 349 347 345 343 343 342 342 343 344 344 345 345 345 345 345 344 344 343 340 339 337
352 352 352 352 351 347 345 346 346 345 344 343 343 345 349 352 353 353 352 351 350 349 348 348 348 347 346 345 344 344 343 344 343 343 343 343 343 343 342 342 342 341 341 343 343 342 342 342 343 345 345 345 345 346 347 347 346 347 346 346 347 347 347 349 349 346 342 339 338 338 338 340 342 343 344 346 346 346 346 346 345 345 344 342 340
351 352 351 351 352 349 346 346 346 345 344 343 343 343 347 351 352 353 352 351 350 350 350 349 348 348 347 347 345 344 345 345 344 344 344 344 345 344 344 343 343 343 343 344 345 344 343 342 342 344 345 345 346 347 347 345 345 346 347 347 347 347 347 348 348 345 341 339 338 337 337 339 340 342 343 344 346 346 347 347 346 346 346 345 344
351 352 351 351 352 351 348 347 347 346 343 343 342 342 347 352 353 353 353 352 352 352 351 351 350 348 347 347 346 345 346 345 345 346 346 347 346 346 345 344 344 344 344 344 344 344 344 344 344 343 344 345 346 347 346 344 344 344 345 345 345 344 345 345 345 344 343 343 343 342 342 341 340 341 343 343 344 345 347 348 348 348 347 346 346
351 351 351 351 352 352 350 349 348 345 343 342 340 341 346 351 353 353 353 353 352 352 352 352 352 350 348 347 347 346 347 347 347 348 348 347 347 346 346 346 346 345 345 344 344 344 344 345 345 345 344 344 344 345 344 343 343 342 343 343 342 342 343 343 344 344 344 344 342 343 344 344 341 340 342 344 344 344 345 347 348 348 348 348 348
349 349 350 351 352 352 352 351 349 346 344 342 341 343 347 351 352 352 352 352 353 353 353 353 352 352 350 349 349 349 349 350 350 349 349 348 348 347 347 347 347 347 346 345 345 345 345 345 346 346 346 345 345 346 345 345 345 344 343 344 343 343 344 346 346 346 346 344 342 342 344 346 343 340 340 344 345 346 345 346 348 349 349 349 349
349 348 349 351 352 352 352 352 351 348 345 343 344 347 350 351 351 352 351 352 353 353 353 353 352 352 352 351 352 352 351 351 350 349 348 348 348 348 348 348 347 347 347 346 346 346 346 346 347 348 348 349 349 349 348 346 346 345 345 345 345 345 345 346 346 346 345 345 345 345 345 346 345 342 341 343 345 347 347 347 347 349 349 349 349
349 348 348 349 350 351 351 351 352 350 348 347 346 347 350 351 352 352 351 351 352 353 353 352 352 352 352 353 351 351 350 350 349 348 348 347 347 348 349 349 348 347 347 347 346 346 346 347 348 348 348 349 350 349 349 348 347 347 347 347 346 346 346 345 345 344 344 344 345 345 346 346 347 346 345 345 346 347 347 347 348 350 350 348 348
351 348 348 349 349 349 351 351 351 351 351 351 349 348 350 351 351 351 352 351 351 351 352 352 352 351 350 350 350 350 350 350 350 350 350 349 349 349 349 349 349 347 346 346 346 346 345 346 346 346 346 347 348 349 349 349 348 347 347 347 347 347 347 347 346 345 344 344 344 343 344 345 346 346 346 345 345 345 346 347 348 349 349 349 348
351 348 349 350 350 350 351 351 350 351 351 352 352 351 351 351 351 350 349 350 349 347 348 350 350 350 350 349 349 350 350 351 351 351 351 349 348 348 348 347 346 345 344 345 345 344 344 344 344 345 346 346 346 346 347 347 346 345 345 345 346 346 346 346 346 345 344 344 343 343 344 345 346 345 346 345 346 344 344 346 347 347 347 348 348
349 348 350 351 351 351 351 351 351 351 351 351 352 352 353 353 352 347 345 347 348 347 347 348 348 349 349 348 347 347 347 348 348 347 347 346 345 346 346 345 345 345 345 346 346 344 344 345 345 346 346 345 345 345 345 344 343 342 343 342 343 344 345 346 346 345 345 344 343 344 345 346 346 346 346 346 347 346 343 343 345 347 348 346 346
352 351 351 351 351 351 351 352 351 351 351 351 352 352 353 354 353 350 348 348 349 350 349 349 349 349 348 347 347 346 345 345 345 345 346 346 345 345 347 347 348 348 348 348 348 346 344 346 346 345 345 344 343 344 343 342 342 342 343 344 344 345 345 346 346 346 345 344 342 341 343 345 346 346 346 346 346 344 341 340 341 345 347 346 346
354 354 352 350 350 351 352 352 352 352 352 351 351 352 352 353 353 353 352 353 353 352 351 350 349 348 347 347 346 347 346 346 346 346 346 347 346 346 347 347 348 349 349 349 349 348 345 345 345 343 343 343 342 342 342 342 341 343 344 345 345 346 346 346 345 345 344 342 340 340 341 343 344 345 346 345 345 344 341 342 342 344 345 345 344
354 354 352 350 349 350 351 351 351 351 352 352 351 352 352 353 353 353 353 354 354 353 352 352 351 348 347 346 347 348 348 348 348 347 346 346 346 346 347 347 349 349 349 349 348 347 345 343 343 343 343 343 342 343 342 341 342 342 343 344 344 345 344 344 342 342 342 341 340 341 342 342 344 345 346 346 345 345 345 344 344 344 344 344 343
353 352 351 350 349 349 349 349 349 350 351 351 352 352 352 352 353 353 353 353 353 353 353 352 350 348 347 348 348 349 349 349 348 347 346 346 346 346 348 349 349 349 348 347 346 345 344 342 342 343 343 343 343 343 342 342 342 342 341 342 342 342 342 342 341 341 342 342 342 342 342 343 343 344 345 345 345 345 344 343 343 343 343 344 344
351 351 350 350 349 349 349 349 349 349 351 352 351 352 353 353 353 353 353 353 353 354 353 351 348 347 348 348 348 348 348 348 347 346 346 347 347 348 348 347 347 346 345 345 345 344 344 343 343 343 343 343 343 343 343 343 342 342 342 342 342 342 342 342 342 342 343 342 342 342 342 342 342 343 343 343 343 343 342 343 342 342 343 344 345
351 353 351 349 349 349 349 349 349 349 351 351 350 352 352 353 353 353 352 353 353 353 353 350 348 348 348 348 348 348 348 347 347 347 347 347 347 347 346 345 345 344 344 344 345 344 344 344 344 343 344 344 343 343 344 343 343 343 343 343 343 343 342 342 342 342 342 342 342 342 342 342 342 342 343 342 342 342 342 343 343 343 343 344 344
350 350 349 348 349 349 349 349 349 349 349 350 350 352 351 351 352 351 352 353 353 351 351 349 349 349 349 348 348 348 348 347 347 347 347 346 346 345 345 345 344 344 344 344 344 344 344 344 344 344 344 344 343 343 343 343 343 343 342 342 342 342 342 342 341 341 342 342 342 342 342 342 342 342 342 342 342 342 342 342 341 341 341 341 341
349 349 348 349 349 350 350 349 349 349 349 350 351 351 351 351 351 351 352 352 351 350 350 349 349 348 348 348 348 348 348 347 346 346 345 345 345 345 344 344 344 344 344 344 344 344 344 344 344 344 344 344 343 343 343 343 342 342 342 341 340 341 340 340 340 340 340 340 340 340 341 341 340 338 337 338 340 340 339 339 339 339 339 340 340
348 348 348 348 349 351 351 350 350 351 351 352 351 350 350 350 350 350 350 349 349 349 349 349 348 348 347 347 347 347 346 345 345 345 345 345 345 345 345 344 343 343 344 343 343 343 343 343 343 343 343 343 343 343 343 342 341 341 340 340 340 339 337 337 337 334 334 334 333 334 336 336 334 334 333 335 337 338 338 338 339 339 340 340 340
350 348 347 347 349 350 352 352 352 352 353 352 351 349 349 348 348 348 349 349 350 350 348 347 346 346 346 345 345 345 345 345 345 345 345 344 345 345 344 342 340 340 341 341 341 341 341 342 342 341 342 342 341 340 339 339 338 338 339 340 339 336 332 330 330 329 329 331 330 331 334 335 334 335 336 337 337 338 338 338 339 339 339 340 340
353 349 349 348 349 350 351 351 352 353 352 352 350 350 349 349 348 348 349 350 349 348 346 345 345 345 345 344 345 346 347 346 346 345 344 343 342 342 340 338 334 333 335 339 341 341 341 341 341 341 341 339 336 334 333 333 333 333 336 337 335 331 327 325 326 330 332 333 332 333 336 337 336 336 338 339 339 338 338 338 338 337 337 337 336
353 351 349 349 349 349 350 350 353 354 351 350 350 349 350 350 349 349 349 349 348 346 346 346 346 345 345 344 344 345 346 346 345 344 341 339 337 335 334 333 331 332 335 339 341 341 340 341 340 340 338 335 333 332 331 331 329 329 332 334 332 327 325 326 328 332 335 335 334 335 337 337 337 337 337 338 338 338 338 337 336 335 334 334 332
353 351 349 349 350 351 351 352 353 352 349 349 350 351 350 349 348 349 349 347 347 346 346 346 344 343 344 343 343 344 344 343 342 339 336 333 331 329 329 330 329 332 337 339 340 340 340 340 339 338 337 336 334 334 333 331 329 327 328 330 330 327 327 330 333 334 335 336 336 336 337 337 336 336 335 336 336 336 336 335 334 333 332 332 332
353 352 351 350 350 351 352 352 350 348 349 350 350 349 348 348 348 349 348 346 345 345 345 345 344 344 344 342 340 339 338 337 334 331 330 328 328 327 327 327 328 332 338 340 340 341 340 339 339 338 337 336 335 334 333 332 328 327 326 327 329 329 330 334 335 335 335 336 336 337 336 336 336 335 334 334 334 333 333 332 332 332 332 332 332
352 352 351 349 349 351 352 351 349 348 350 350 349 348 347 347 348 348 346 345 345 344 344 343 342 342 341 339 337 336 335 334 331 329 328 327 327 327 327 327 330 334 337 339 340 341 340 339 338 338 336 335 334 335 335 332 330 329 329 328 330 331 332 334 335 335 335 335 336 335 335 335 335 334 334 334 333 333 333 332 331 331 331 331 331
352 351 349 348 349 351 351 350 349 350 350 349 348 346 345 345 346 346 345 344 344 343 341 339 338 338 338 338 338 337 336 335 331 328 328 328 328 328 327 328 333 336 337 339 341 341 339 338 337 336 335 334 335 336 337 335 334 334 333 332 331 332 333 334 335 335 335 335 335 334 334 335 335 335 335 334 333 334 333 332 332 332 331 331 330
350 349 349 349 350 350 351 351 350 350 349 347 346 344 343 343 344 345 344 343 342 341 340 339 339 339 339 339 338 337 336 335 331 329 329 329 329 329 329 330 333 336 338 340 340 339 338 336 336 335 334 335 335 336 337 337 337 337 336 335 334 334 335 335 335 335 335 335 335 335 335 335 335 335 334 334 334 333 333 332 332 332 332 332 331
348 348 349 351 351 352 352 351 349 349 347 344 343 343 343 343 344 344 343 342 342 341 340 340 340 340 340 340 339 338 336 334 331 330 330 329 330 330 330 330 331 334 335 336 336 335 335 335 335 335 335 336 336 337 337 337 337 338 337 337 336 336 336 336 336 336 336 336 335 335 335 335 334 334 334 334 333 333 332 332 332 332 332 333 332
349 350 351 351 351 352 351 349 349 348 345 343 343 343 343 343 344 343 342 342 342 342 342 341 341 340 340 340 340 338 335 332 331 331 330 330 330 331 331 331 332 332 333 334 333 333 334 334 335 336 336 337 337 337 337 337 337 337 337 336 336 336 335 335 335 335 335 335 334 334 334 334 333 333 333 333 333 332 332 331 332 332 332 332 333
352 352 352 352 351 351 349 349 349 348 345 343 343 343 344 344 344 343 342 342 342 343 342 341 340 340 340 340 339 337 333 332 331 332 332 331 331 332 332 333 332 333 334 335 335 335 335 336 336 336 336 336 336 336 336 335 335 335 334 334 334 334 334 334 334 334 334 333 332 332 332 332 332 332 332 332 332 332 332 331 331 331 331 331 331
Wind_Speed
4 5 6 5 4 4 3 1 3 2 4 10 11 9 9 9 8 5 2 1 3 3 2 3 1 4 6 6 6 6 5 4 4 5 4 5 7 8 8 8 7 7 7 7 6 6 6 6 7 7 7 7 6 4 3 2 3 4 5 6 7 8 9 9 8 7 7 7 7 7 8 8 9 9 10 10 11 11 11 11 12 12 11 11 11
6 7 7 6 6 5 3 2 3 3 5 9 9 10 11 10 9 7 3 1 3 2 2 1 1 4 5 5 6 5 4 4 4 4 3 4 5 7 8 8 7 7 7 7 7 6 6 6 6 7 7 8 7 6 5 3 2 3 4 5 5 6 8 9 8 8 7 7 7 8 8 8 9 9 10 10 11 11 11 11 11 11 11 11 11
7 8 8 7 7 6 5 3 3 4 4 9 10 11 13 11 10 8 5 3 3 4 3 1 3 5 5 6 6 4 4 5 4 3 3 4 4 5 6 7 7 7 6 6 6 6 6 6 6 7 7 7 7 7 6 4 3 1 3 3 4 4 5 7 8 8 7 7 7 8 8 9 9 10 10 10 11 10 11 11 11 11 11 11 11
9 9 9 8 8 7 6 4 4 4 3 8 11 12 13 11 10 8 6 5 5 5 3 0 4 6 6 7 6 4 5 5 4 3 3 5 4 4 5 6 6 6 7 6 7 6 6 6 6 7 7 7 7 7 7 6 4 3 2 3 3 4 5 5 6 6 7 7 7 8 8 9 9 10 10 10 10 11 11 11 11 11 11 11 11
10 10 10 9 9 8 6 5 5 4 3 5 8 11 11 10 10 9 8 7 7 7 4 2 4 8 8 6 4 3 4 4 4 4 3 5 5 4 4 4 4 4 5 6 7 7 7 6 6 6 6 7 7 7 7 7 6 5 4 2 2 3 4 5 5 6 6 7 7 8 8 9 10 10 10 11 11 11 11 11 12 12 12 12 11
11 11 11 10 9 8 7 5 5 5 5 5 5 7 8 11 12 10 9 9 9 9 7 5 5 8 9 6 4 3 3 3 4 5 4 5 5 4 3 3 3 3 3 5 6 6 6 6 6 5 5 6 6 6 7 7 7 7 6 5 3 1 1 2 4 5 6 7 7 8 9 9 10 11 11 12 12 12 12 13 12 12 12 12 11
12 12 11 10 9 8 7 6 5 3 3 5 5 6 6 10 12 10 10 10 9 8 7 6 6 7 9 6 5 4 3 2 4 4 4 4 4 4 3 3 3 3 3 4 5 5 5 5 6 6 5 5 5 6 6 6 7 7 7 6 5 3 2 1 1 3 4 5 6 7 8 8 9 10 11 12 12 13 13 13 12 12 12 12 12
11 11 11 10 9 9 8 7 5 3 1 3 4 5 6 10 12 9 10 11 9 8 7 6 4 7 10 9 5 6 5 2 2 3 3 4 4 4 4 4 3 4 4 6 6 5 5 5 5 5 5 5 4 5 5 5 6 6 6 6 5 4 4 3 3 2 3 3 4 5 6 7 8 9 10 10 11 12 12 12 12 12 12 12 12
10 9 8 8 8 9 8 7 6 4 3 3 4 5 6 9 12 10 10 11 10 9 7 6 3 6 8 10 5 7 6 2 2 2 3 4 4 5 6 5 4 4 4 6 6 5 5 5 4 4 5 5 5 4 4 4 5 5 5 5 5 4 4 4 3 3 3 3 4 5 5 6 6 7 8 9 10 11 11 11 12 12 12 12 12
9 9 7 7 8 8 8 8 8 6 5 6 5 5 7 9 11 12 11 11 10 10 8 6 3 3 4 10 6 7 6 3 2 3 4 5 5 7 8 7 5 5 5 5 6 5 5 5 4 4 4 4 4 5 5 5 4 4 4 4 5 5 4 4 4 4 4 4 4 4 5 5 5 6 7 8 9 10 11 11 12 12 13 13 13
9 9 8 7 8 9 9 9 10 8 6 7 6 5 8 10 11 12 12 12 11 10 9 7 3 1 2 6 6 6 6 5 3 4 6 6 5 7 9 9 7 6 6 5 6 5 5 6 6 5 5 5 5 4 5 5 5 4 4 4 5 5 4 4 4 4 4 4 4 4 4 5 5 6 7 8 9 9 10 11 12 12 13 13 13
9 9 9 8 8 9 9 10 11 11 9 9 8 5 7 10 11 13 13 13 11 9 10 9 5 4 3 3 4 5 6 7 5 4 6 7 7 8 9 8 8 7 7 6 6 5 5 6 6 5 5 5 5 5 5 5 5 5 5 5 5 4 4 4 4 5 4 4 4 4 5 5 5 6 6 7 8 9 9 9 10 11 12 12 13
10 10 10 9 9 10 10 10 11 13 12 12 11 9 8 10 11 13 14 13 12 10 10 9 6 5 5 3 4 4 5 6 6 5 8 10 10 9 8 7 7 7 6 7 7 7 6 6 6 6 5 5 5 5 5 5 5 6 5 5 5 5 5 5 5 5 5 5 5 5 5 5 6 6 6 7 7 8 8 9 9 10 10 11 11
11 11 11 10 10 10 10 11 11 12 14 14 14 12 11 12 11 11 13 14 13 10 9 10 8 5 5 5 6 5 5 7 8 8 10 11 12 11 9 7 7 6 6 7 8 8 7 7 7 6 6 6 6 5 5 5 6 6 6 6 7 7 7 6 6 6 6 6 6 7 7 7 7 7 7 7 8 8 8 9 9 9 10 10 10
13 13 13 12 11 11 11 11 12 12 12 13 12 11 10 11 11 10 12 13 14 11 9 10 9 4 5 7 6 5 5 8 9 10 9 10 12 11 9 8 7 6 6 8 9 8 7 7 8 8 7 7 6 5 5 5 6 6 6 7 7 8 8 8 8 8 7 7 7 7 8 8 8 8 8 9 9 9 9 9 9 9 9 9 9
15 15 14 13 12 12 11 12 12 12 11 10 9 8 8 9 10 10 10 11 12 10 9 10 8 5 6 8 6 4 6 8 10 10 10 11 12 11 10 9 8 7 8 9 10 9 7 7 7 8 9 9 9 8 6 6 6 7 7 7 8 9 9 10 10 9 9 9 9 8 9 9 9 9 9 10 10 10 10 10 9 9 9 9 9
16 15 14 13 12 12 12 13 13 12 11 10 8 7 7 8 8 9 10 10 9 10 10 9 8 5 6 9 8 7 7 8 10 10 10 11 13 13 13 12 10 10 10 10 11 10 8 7 7 8 9 10 10 10 9 8 8 8 9 9 9 10 11 11 11 11 11 10 10 10 10 10 10 10 11 11 11 11 10 10 10 10 10 9 9
16 14 13 12 11 12 13 13 13 12 12 11 9 7 7 7 8 8 9 9 9 10 10 9 8 7 7 9 9 11 10 8 9 10 10 10 11 13 15 14 12 12 13 12 13 12 11 10 9 9 9 9 10 10 9 8 8 9 10 10 10 10 11 12 12 12 12 12 12 12 12 12 12 12 12 12 12 12 11 11 11 10 10 10 10
15 14 12 11 11 12 13 12 12 11 11 11 9 8 7 6 7 8 7 8 8 10 10 8 8 10 10 9 7 10 11 8 9 11 10 10 9 8 9 11 12 13 14 15 14 14 14 13 12 11 10 10 10 9 9 8 8 9 9 9 10 10 11 12 12 12 12 12 13 14 14 14 14 14 13 13 13 13 13 12 12 12 11 11 11
16 15 12 11 11 11 12 12 11 10 10 10 9 8 8 7 8 8 7 7 9 10 10 9 10 12 12 9 6 8 9 8 7 7 8 11 10 7 6 7 10 12 13 13 13 13 14 15 15 13 13 13 12 12 12 12 11 11 11 11 11 11 12 13 13 13 13 14 15 15 15 15 15 16 15 15 15 15 14 14 13 13 13 13 12
18 16 13 13 11 10 12 12 10 10 9 10 9 9 10 9 8 8 7 7 8 11 12 11 12 13 13 12 10 9 10 9 7 5 6 10 11 10 9 10 12 13 13 10 9 10 12 15 17 18 16 16 16 15 15 16 16 15 15 15 15 14 14 15 14 14 14 15 16 17 17 17 17 17 18 18 17 17 16 16 15 14 14 14 14
17 16 15 13 11 9 10 11 10 10 10 10 10 11 11 10 8 7 6 7 8 10 12 13 14 15 14 14 14 13 12 10 9 7 8 11 12 13 12 12 14 15 11 7 6 8 10 12 16 19 19 19 19 17 17 18 20 20 18 18 18 17 17 18 18 16 15 16 18 19 19 19 19 19 19 20 20 20 19 18 17 16 16 16 16
17 16 15 14 12 10 9 9 10 10 11 12 11 11 11 10 7 6 6 7 8 9 11 13 15 17 16 15 15 14 13 12 10 10 11 13 14 15 14 12 12 10 8 7 7 6 6 8 12 17 19 20 19 18 18 18 19 20 20 19 18 17 18 20 20 19 18 18 19 21 21 21 21 22 22 22 22 22 21 20 20 19 18 18 18
18 18 17 16 14 11 10 10 10 10 11 12 12 11 11 11 8 7 7 7 7 7 8 9 11 14 15 16 16 15 13 12 11 10 12 14 14 14 14 11 10 10 10 11 11 10 9 8 9 13 16 17 16 17 17 17 16 17 17 18 18 18 18 20 21 20 20 21 21 22 22 22 23 24 24 24 24 23 23 23 22 21 20 20 20
20 21 20 18 15 12 10 9 10 11 11 12 13 12 12 12 10 8 8 9 9 8 8 8 8 9 10 12 14 14 12 11 11 12 13 14 15 14 13 11 12 13 13 14 15 16 15 12 8 10 13 15 16 17 18 19 18 18 18 19 19 18 19 20 22 22 22 23 23 23 23 24 25 25 25 25 26 26 25 24 24 23 23 23 22
23 22 20 18 16 12 10 10 10 11 11 12 13 12 11 12 11 10 9 10 10 10 9 9 8 8 6 7 8 10 11 11 13 15 15 15 16 15 15 14 15 15 16 16 17 18 18 15 12 10 12 14 14 15 17 19 19 19 19 19 18 17 19 21 22 23 23 23 23 23 24 24 25 26 26 26 27 28 28 27 26 25 25 25 25
23 21 20 19 17 14 11 10 9 10 10 12 14 13 12 11 12 12 12 11 11 11 10 10 9 9 8 7 7 8 11 13 15 16 16 17 17 16 16 16 16 18 19 20 20 20 19 17 14 12 12 14 15 16 17 19 19 20 20 19 18 19 20 21 22 22 22 22 23 23 24 24 25 26 26 26 27 28 29 29 28 27 27 27 27
23 21 18 17 16 15 13 10 9 10 9 10 13 13 12 12 13 14 15 15 14 13 13 12 10 10 10 10 11 12 13 14 15 16 17 18 19 19 18 17 16 18 19 21 21 21 20 17 14 15 16 17 18 19 19 20 20 21 22 22 22 22 22 23 24 24 24 23 24 24 24 24 25 27 27 28 28 28 29 29 28 27 28 28 29
24 21 15 13 13 13 13 10 8 9 9 10 11 11 12 13 14 16 17 17 17 17 17 16 13 12 12 13 14 14 14 14 14 16 17 18 19 20 20 19 18 18 18 19 21 22 21 20 19 20 20 20 20 20 21 22 23 24 24 24 25 25 25 25 26 26 26 26 26 26 25 25 25 26 27 28 28 28 28 28 27 27 27 28 29
23 20 15 13 12 12 12 11 9 9 9 10 11 11 11 12 14 17 18 19 18 17 17 18 18 17 16 16 16 16 17 17 17 18 19 20 20 21 22 22 21 20 18 19 21 24 23 22 21 21 21 21 21 21 22 23 24 24 23 24 24 24 25 25 25 25 26 26 25 26 25 25 26 26 26 27 27 27 26 26 26 26 26 26 28
19 17 15 15 14 13 13 13 12 10 10 11 10 11 11 12 13 14 16 17 16 14 13 14 16 17 18 18 18 19 20 21 21 21 21 20 19 18 18 18 19 19 18 17 21 23 22 21 20 19 20 21 21 22 22 22 23 23 24 24 24 23 24 24 24 24 24 23 23 23 24 25 26 27 27 27 27 26 26 25 26 26 27 27 27
18 18 17 16 15 14 14 14 14 13 12 12 11 10 11 11 12 12 13 13 13 13 12 13 14 15 17 17 17 17 18 19 20 19 18 18 17 16 15 15 15 16 17 17 19 22 21 20 20 20 19 20 21 22 23 22 22 22 22 21 21 21 22 23 23 23 22 22 22 22 22 23 24 25 25 25 25 25 25 25 25 26 26 26 26
19 20 20 19 17 16 15 15 16 15 15 14 12 11 11 12 12 11 11 12 13 13 13 14 15 15 16 16 16 15 16 16 16 17 17 17 18 17 16 15 15 15 17 17 19 22 22 20 20 20 19 19 19 19 20 20 19 19 19 17 17 17 19 20 21 21 21 21 22 22 22 23 23 23 24 24 24 24 25 25 25 25 26 26 26
22 21 20 20 19 18 18 17 16 16 16 16 14 13 12 13 13 13 12 13 14 15 15 15 16 16 17 16 16 15 14 15 15 15 16 17 17 17 17 16 15 15 17 17 18 21 22 20 18 18 16 16 17 16 17 17 17 16 16 15 15 16 17 19 20 20 20 20 20 20 21 22 22 23 23 23 24 24 25 26 26 27 28 28 28
24 22 20 20 21 20 19 19 18 16 16 15 15 15 15 15 15 15 15 16 17 17 16 16 16 16 16 16 16 16 16 16 17 17 17 17 18 17 16 15 15 15 15 16 16 18 21 20 18 17 16 15 16 16 16 16 16 16 15 14 15 16 17 18 19 18 18 17 18 19 19 20 21 22 23 23 24 25 25 26 26 26 26 26 26
21 22 21 18 20 22 22 21 19 17 16 16 16 16 17 16 17 18 18 18 19 18 16 16 16 15 16 16 16 17 17 18 17 17 16 16 15 14 14 13 13 13 14 14 15 16 18 19 18 16 16 16 15 14 15 15 14 15 15 16 16 16 16 17 17 18 17 17 17 18 18 19 20 20 21 21 22 23 23 23 23 23 22 22 22
17 22 23 17 17 21 24 23 20 18 18 17 18 18 19 18 18 19 19 19 18 17 16 16 16 16 16 16 16 16 17 16 15 14 13 11 11 11 11 11 12 12 12 12 13 14 15 17 17 16 15 15 14 13 14 15 15 13 14 14 15 15 16 16 16 17 17 17 16 16 17 18 18 18 17 18 18 17 17 17 17 18 18 18 18
16 20 24 21 16 18 22 24 21 20 20 20 20 21 20 19 18 17 18 18 17 16 16 15 15 15 15 14 14 14 14 12 11 10 9 9 9 9 10 11 11 11 11 11 12 13 13 15 16 16 16 15 14 13 13 15 16 15 15 15 12 12 14 15 15 15 15 15 15 15 15 16 16 16 15 15 14 13 12 12 12 12 13 13 13
18 18 20 21 19 17 19 22 21 20 21 22 21 20 18 18 17 17 18 17 16 15 15 15 14 13 12 11 10 9 9 8 8 8 8 9 9 8 9 9 10 10 10 10 11 11 12 13 14 14 14 14 14 14 13 13 15 15 17 17 14 12 12 14 14 14 13 12 12 12 12 14 14 15 15 13 11 11 10 10 10 11 11 11 11
18 17 16 19 22 20 19 19 19 20 20 20 18 16 16 16 16 16 15 15 15 14 13 12 10 9 7 6 5 5 6 6 6 6 7 7 7 7 7 8 8 9 8 9 9 10 11 12 12 13 13 13 13 13 13 13 15 15 15 17 16 16 15 14 14 15 14 13 12 11 11 12 12 12 12 11 9 9 10 10 11 12 12 12 12
17 16 15 17 20 22 22 20 20 19 18 16 15 14 14 14 14 14 13 13 12 11 9 8 6 5 4 3 3 3 4 5 5 5 5 5 6 6 7 7 8 9 8 8 9 9 10 10 11 12 12 12 13 14 15 15 16 17 16 16 17 18 18 16 14 13 13 13 13 11 9 11 11 10 9 9 8 9 10 11 12 13 14 14 15
18 17 16 17 19 21 23 23 22 20 16 15 15 14 13 13 13 13 12 11 9 7 6 5 4 3 3 2 2 1 2 3 4 3 3 4 5 6 7 8 9 10 9 8 8 8 9 9 10 11 12 13 14 16 17 16 17 17 16 17 18 18 19 18 13 9 10 13 14 11 8 10 12 11 10 11 12 12 13 14 15 16 16 16 17
19 19 18 19 20 19 21 22 22 19 17 16 15 13 12 12 11 11 10 8 8 7 6 5 4 2 2 1 1 1 2 2 2 3 5 6 7 8 9 10 9 9 7 7 7 7 8 8 8 10 12 14 15 15 17 17 16 16 15 16 18 19 19 18 14 10 11 13 16 15 12 11 12 12 11 12 14 15 15 17 17 17 17 17 17
22 20 19 20 19 19 20 21 19 18 16 15 13 12 11 11 10 9 9 9 8 7 5 4 3 2 2 1 0 0 2 3 4 6 7 7 8 9 9 9 9 7 6 6 6 6 7 7 7 9 12 14 15 16 17 17 16 15 14 14 16 16 15 14 13 13 13 13 15 15 13 12 13 13 12 12 14 15 16 17 18 18 18 17 17
22 19 18 18 18 19 20 19 17 16 16 14 12 11 10 10 9 10 10 9 7 6 5 4 3 2 2 1 1 1 3 4 5 6 6 7 7 7 8 8 7 6 5 6 6 5 5 6 7 10 13 15 16 16 16 15 14 13 12 11 11 12 11 11 12 14 14 14 15 16 14 13 14 14 13 13 14 15 16 17 17 18 18 17 16
19 18 17 17 18 19 19 18 16 15 15 13 11 10 10 10 11 11 10 8 7 6 5 4 3 2 2 2 2 2 3 4 5 5 4 4 5 6 7 6 6 6 7 7 6 4 4 6 9 12 13 13 13 13 12 12 11 11 10 10 9 10 11 11 13 14 14 15 16 17 17 15 15 16 15 16 17 17 17 17 17 17 17 17 17
18 18 17 18 18 19 18 17 16 15 14 12 11 11 11 11 12 11 9 8 8 7 6 4 4 4 3 2 3 3 4 4 5 5 4 3 3 4 5 5 5 6 6 6 5 4 6 9 12 14 13 11 9 9 10 10 10 10 10 10 11 12 13 13 14 14 13 14 16 17 18 17 17 19 19 20 20 18 17 17 16 15 16 16 17
18 18 18 18 18 18 17 15 14 13 13 12 12 13 12 12 12 11 10 9 9 7 6 6 5 4 3 3 5 6 6 6 6 6 5 5 4 3 4 5 6 5 4 4 5 7 9 11 12 13 12 10 9 9 10 11 11 10 10 10 12 13 14 14 15 13 12 14 16 17 19 20 20 22 24 23 22 20 18 16 15 14 14 15 16
19 19 19 19 18 17 16 14 13 12 12 13 13 13 13 13 13 12 11 10 8 7 6 5 3 2 3 5 6 7 7 7 7 7 6 5 5 4 4 4 5 6 5 5 7 8 9 9 9 10 10 9 9 11 12 12 12 12 11 11 11 13 14 15 16 15 15 16 18 19 20 22 23 25 27 26 23 21 18 16 14 14 15 15 15
22 22 22 21 19 16 15 14 13 13 13 13 12 13 14 14 14 13 11 10 8 6 5 3 1 1 2 4 6 7 7 6 6 7 6 5 4 3 3 3 4 4 4 4 5 7 7 8 9 9 9 9 9 11 12 12 12 12 12 12 12 13 14 16 17 18 18 17 18 20 21 23 23 23 25 26 24 21 17 16 16 17 16 16 15
24 24 23 21 19 18 16 16 16 14 13 13 13 14 15 15 14 12 11 9 8 7 5 3 2 2 3 5 6 6 6 6 6 6 6 5 4 3 2 3 3 2 3 5 5 6 7 9 9 9 9 9 9 9 10 10 9 9 9 10 10 11 12 13 15 17 18 16 17 18 20 21 21 20 20 23 24 23 20 19 19 19 18 17 17
Wind_Direction
291 295 295 294 289 277 272 276 283 275 183 179 174 171 172 175 181 191 250 322 5 2 213 225 301 341 348 349 337 347 358 354 353 350 7 31 45 45 44 51 57 65 68 66 62 56 52 42 36 32 31 33 30 41 77 123 162 179 188 196 200 205 202 194 195 201 204 209 212 213 215 219 220 219 220 220 221 222 225 229 232 234 236 238 240
282 283 286 287 281 275 279 301 294 271 197 192 188 180 183 188 185 184 198 126 64 72 99 146 318 327 334 347 340 348 4 356 347 340 346 10 32 40 40 44 47 56 63 65 63 58 56 50 46 40 36 38 39 43 52 73 118 172 183 187 194 202 200 191 193 201 206 210 213 215 215 218 219 219 221 221 222 224 226 228 231 233 235 237 239
272 276 283 281 277 277 279 289 286 271 207 194 195 193 196 196 187 182 186 170 133 117 83 54 277 306 323 340 335 335 352 354 355 351 344 355 17 29 34 38 38 45 52 58 59 55 53 51 49 45 41 39 42 47 51 62 72 137 174 183 190 198 201 193 194 201 208 214 217 220 220 221 220 220 222 224 225 226 228 229 229 231 233 236 238
270 273 277 276 276 274 275 281 272 262 207 191 197 204 210 205 194 192 194 194 177 158 120 300 267 283 306 337 337 319 328 340 357 8 349 352 12 19 22 29 28 36 45 50 52 50 44 44 48 47 46 42 40 44 48 57 62 74 131 171 190 199 205 206 207 206 211 216 219 222 223 225 225 224 225 226 226 226 227 230 231 232 233 235 237
269 270 269 272 275 270 274 283 273 264 229 203 204 213 219 210 204 202 201 200 185 178 183 213 270 276 281 317 342 322 317 330 353 10 1 353 4 8 7 20 19 21 40 47 45 45 38 33 38 42 47 47 43 41 41 45 51 57 74 114 162 196 203 209 218 217 218 221 223 223 225 228 229 228 228 228 228 229 230 231 232 233 235 236 236
268 268 266 268 269 269 277 279 268 260 249 238 222 220 218 207 206 203 198 200 189 186 201 222 275 276 260 284 319 306 302 318 338 352 1 354 359 14 10 2 1 353 17 36 30 31 35 28 26 29 36 42 43 42 40 40 41 44 49 60 72 79 208 213 221 225 224 226 228 229 230 230 231 230 227 227 228 231 233 234 235 237 241 239 237
266 264 263 263 265 267 271 267 250 234 245 259 248 231 215 201 200 199 195 192 188 197 222 246 292 289 257 265 305 287 268 306 334 343 356 352 354 18 13 346 336 326 330 352 356 360 16 20 15 17 21 27 35 36 38 39 38 39 39 41 45 42 26 355 279 258 248 241 238 235 234 231 230 230 228 228 229 231 234 237 239 241 243 241 238
263 260 260 261 262 259 259 254 229 192 195 277 271 243 218 201 197 197 197 190 194 219 243 258 309 315 268 253 292 292 264 267 329 334 345 349 351 356 355 351 347 329 307 311 322 328 344 357 358 359 4 10 18 25 29 32 34 36 36 35 34 35 31 17 4 336 310 290 276 262 255 245 239 236 232 231 231 233 238 239 241 241 241 241 241
256 253 257 262 260 255 255 244 212 192 214 258 282 256 219 202 199 199 201 200 213 236 243 245 297 335 271 242 273 293 253 233 333 325 323 330 333 333 340 346 349 347 327 315 317 312 313 322 330 333 340 352 2 8 14 18 23 28 30 32 30 29 27 17 12 360 343 328 312 297 287 274 262 254 244 238 236 237 240 240 240 239 240 242 244
253 251 258 269 266 260 252 234 213 210 234 243 253 242 213 197 197 199 204 211 224 240 236 232 272 358 257 229 252 285 241 223 318 317 322 331 327 325 331 333 329 332 331 328 325 316 303 298 305 313 316 327 343 351 355 357 360 8 13 18 21 22 19 11 8 3 352 340 329 315 305 293 284 275 264 256 249 245 243 242 242 241 242 243 243
258 257 263 273 274 268 254 238 227 220 228 239 240 236 219 206 203 202 205 215 228 241 237 237 246 114 204 227 246 280 244 227 273 308 322 334 330 323 326 326 320 313 310 315 322 319 301 294 300 303 304 308 318 330 335 339 342 346 353 359 6 9 8 3 358 355 349 342 332 323 316 307 298 289 280 271 263 259 255 251 249 248 248 248 248
262 263 268 277 280 273 258 244 235 227 224 233 239 241 225 214 212 210 210 216 226 237 240 245 239 178 201 256 272 279 241 232 252 286 308 315 318 322 326 324 317 311 301 294 304 312 296 289 294 295 295 297 303 310 316 320 322 327 333 338 343 349 353 353 349 344 337 332 328 323 317 308 301 294 288 284 276 273 271 267 263 262 262 259 258
269 269 271 280 284 275 262 249 239 232 227 229 237 244 234 221 217 215 216 221 225 230 234 239 228 201 219 276 303 283 233 228 242 268 294 304 309 311 319 328 325 320 309 288 288 298 291 277 279 286 287 283 289 295 298 302 306 311 319 324 326 327 330 335 336 336 331 325 322 319 316 309 303 298 293 290 287 284 284 284 282 281 281 276 270
272 274 274 281 284 276 265 254 245 239 233 232 238 246 241 230 227 222 221 226 229 225 223 227 227 227 249 278 298 285 238 226 238 260 282 292 299 300 303 317 328 328 314 297 296 298 288 273 267 271 278 274 275 282 283 287 293 300 309 314 317 315 314 315 316 319 320 319 316 315 314 312 307 304 301 297 294 291 291 290 292 294 294 291 286
269 276 277 281 285 278 266 254 248 245 242 237 238 242 238 232 236 235 228 231 233 225 212 219 227 244 274 288 295 272 234 227 240 258 274 283 289 293 293 295 312 324 308 304 310 308 295 280 267 262 269 272 272 275 275 277 282 291 305 310 311 309 307 304 303 304 306 307 309 310 311 311 309 307 305 303 300 297 295 294 295 297 299 298 296
266 275 279 281 282 276 265 253 247 244 243 239 234 237 234 231 235 235 231 233 235 226 210 212 227 253 290 296 284 240 234 239 251 264 272 277 280 283 284 281 289 301 305 310 314 315 308 289 276 266 264 269 273 273 271 271 274 281 296 305 304 300 300 299 297 296 297 300 302 304 306 308 308 306 304 302 300 300 299 299 298 298 297 296 295
265 275 279 281 277 268 260 251 243 240 239 235 229 232 232 230 231 227 223 225 231 229 212 205 222 248 288 293 271 249 259 259 264 272 270 275 281 281 279 277 278 283 290 302 305 305 302 291 285 277 268 269 271 273 276 275 275 277 284 293 294 290 290 292 294 294 295 296 298 299 301 302 302 302 301 298 296 295 295 295 295 295 293 292 291
265 275 279 281 275 262 253 246 239 236 236 230 220 220 226 224 221 215 211 214 226 232 218 209 223 234 265 285 266 257 274 279 277 282 281 286 293 289 281 272 271 276 278 287 294 294 291 287 289 286 275 270 269 273 276 274 275 279 281 285 285 283 283 286 289 293 295 296 296 296 295 294 293 293 294 293 292 291 290 289 289 288 288 289 290
263 272 275 282 278 258 245 239 233 232 234 226 214 212 217 210 202 198 198 210 227 234 227 229 238 237 251 273 257 247 266 284 287 291 294 297 304 302 289 273 271 280 285 288 291 291 287 284 287 289 280 270 269 270 269 268 274 278 281 283 282 281 284 286 285 286 290 292 291 289 287 286 286 286 287 288 289 289 288 287 285 284 283 284 286
260 267 271 277 276 254 238 233 228 229 231 225 217 210 204 196 196 199 205 218 236 241 238 248 252 241 241 251 248 239 246 262 281 298 302 302 306 307 301 292 288 295 301 299 292 290 290 285 284 288 284 277 274 271 269 269 271 272 274 278 280 279 278 279 278 275 276 278 278 278 279 280 282 284 283 283 284 285 286 286 285 283 281 281 281
257 261 266 270 270 252 233 228 227 228 232 231 224 211 198 194 203 214 221 230 243 244 239 245 252 248 245 248 254 248 241 249 266 286 300 305 307 304 304 306 304 304 306 303 292 289 291 286 281 279 279 279 276 274 274 273 271 270 269 270 271 270 269 268 270 272 275 277 278 277 277 276 277 278 279 280 280 280 281 282 283 282 281 279 278
253 255 260 262 263 254 234 228 229 227 231 235 230 219 207 197 202 218 229 233 235 238 240 245 251 255 258 259 262 259 254 258 265 275 295 305 304 301 302 305 305 303 297 296 301 294 286 277 271 271 276 281 279 276 275 274 271 267 267 267 265 265 269 268 267 270 276 282 284 283 280 276 274 274 274 275 276 276 277 277 278 279 278 277 276
250 253 256 256 258 256 243 235 234 230 232 234 232 227 215 197 196 218 234 236 230 231 242 248 252 256 259 263 264 263 265 271 276 285 297 303 304 301 300 301 303 297 287 297 312 305 292 277 264 262 268 274 277 273 269 271 273 270 270 269 265 264 268 268 266 266 271 279 284 283 280 278 276 275 272 270 270 271 273 274 274 274 275 276 276
245 248 251 252 253 254 248 242 238 234 232 233 233 228 214 198 192 209 229 239 238 238 246 252 256 256 257 260 261 261 265 271 274 282 292 298 303 304 301 296 290 282 279 290 298 299 307 308 280 263 260 262 266 262 257 264 274 279 276 272 271 274 274 271 268 268 272 279 283 282 281 279 279 278 273 269 268 267 267 269 271 271 272 273 274
241 246 249 249 249 247 248 249 246 239 235 234 233 225 215 205 197 208 234 244 245 250 257 261 267 264 258 258 258 256 256 261 268 275 284 291 295 296 297 293 289 288 285 286 290 292 299 307 295 272 264 264 265 262 261 268 277 284 283 279 280 281 278 274 273 272 275 278 280 281 281 279 277 275 272 269 266 265 263 263 266 268 270 271 272
241 246 250 250 248 245 248 254 250 240 235 233 227 213 207 209 210 225 246 249 245 247 249 252 262 270 266 256 254 253 254 263 273 276 277 284 290 292 293 295 295 294 292 290 290 291 294 298 294 283 274 269 268 268 271 276 282 287 289 287 282 276 271 271 272 274 277 278 279 281 283 282 276 270 269 269 268 268 265 263 262 263 265 268 269
241 246 250 251 251 248 246 249 243 231 229 228 218 202 196 206 219 234 248 251 247 246 243 243 250 258 257 254 257 259 260 265 270 272 274 280 286 289 292 295 296 294 293 292 290 290 292 293 288 281 275 272 275 278 280 281 284 287 289 287 281 275 272 271 270 271 272 275 279 281 285 287 279 271 269 269 269 269 269 267 264 262 262 263 264
244 248 248 250 252 249 243 241 232 224 226 228 219 209 206 215 227 236 242 246 247 248 249 247 248 250 250 254 262 263 261 262 264 268 273 277 280 284 287 290 293 294 293 291 289 289 290 289 286 282 278 278 281 282 283 283 283 285 284 281 277 275 276 277 275 273 272 273 275 278 282 284 278 272 270 269 269 270 270 270 269 267 266 264 263
246 246 242 242 245 241 236 235 230 224 228 234 231 224 221 226 234 239 241 245 248 250 250 249 249 250 251 254 258 258 258 258 261 266 270 274 277 281 284 286 287 290 291 290 288 286 286 287 287 287 287 286 286 283 281 282 282 283 281 277 275 275 278 279 278 276 275 275 276 277 278 277 273 271 272 273 273 274 274 274 273 272 271 270 270
243 238 232 237 239 235 233 235 235 231 230 234 234 231 231 237 242 243 243 244 247 248 247 247 247 249 252 255 255 256 257 259 261 265 268 272 275 278 282 283 284 286 287 288 286 284 284 286 286 288 289 289 289 286 284 283 285 285 283 280 279 280 281 281 279 278 279 280 281 280 278 275 273 274 277 278 276 275 278 279 278 275 273 272 273
232 229 231 240 240 235 238 239 238 237 235 233 233 232 235 243 247 243 238 238 240 243 247 249 250 252 255 258 259 260 262 263 264 268 272 275 278 280 283 285 287 288 288 289 288 284 285 289 290 291 293 292 290 289 288 287 286 286 287 285 284 283 283 282 281 282 282 283 284 283 280 277 275 276 278 278 276 275 278 279 278 276 274 274 274
225 232 236 239 237 235 241 240 236 239 241 238 236 236 238 243 245 241 236 237 243 251 258 260 259 258 257 258 262 264 266 268 269 274 280 283 283 283 284 286 288 290 288 288 287 285 286 291 294 296 299 296 293 292 292 291 289 289 290 289 286 284 283 282 281 281 280 280 281 281 281 280 278 276 275 274 274 274 276 277 278 278 279 281 280
229 239 239 234 234 238 241 238 235 239 244 244 241 241 242 242 244 245 244 245 250 255 260 264 268 268 267 267 270 272 273 273 275 279 282 284 284 283 283 281 280 282 284 284 284 286 289 293 297 302 304 301 298 299 298 296 294 293 293 293 291 288 287 287 285 283 282 280 280 281 282 283 281 279 277 275 274 274 276 278 280 281 282 284 284
231 239 238 234 236 238 239 240 241 242 246 248 245 242 243 243 246 250 250 248 251 256 261 269 276 277 277 279 280 281 279 276 276 279 280 280 280 282 283 281 278 279 283 284 285 287 292 297 302 306 309 307 306 308 306 303 302 300 299 297 294 291 290 290 289 289 287 283 282 283 284 285 284 283 281 280 279 279 279 281 282 283 284 285 286
232 232 226 228 237 237 237 242 245 244 243 245 243 241 242 245 246 247 249 252 256 261 265 273 279 278 277 278 279 280 279 277 278 279 278 277 277 279 282 281 281 281 282 285 286 289 294 300 306 310 313 312 311 311 309 307 307 308 307 304 299 297 296 295 294 293 291 288 286 286 286 286 286 286 287 287 287 286 286 287 287 288 290 291 289
234 230 221 225 236 236 235 241 242 240 238 237 236 235 238 240 240 243 249 255 259 263 267 274 279 278 276 275 275 276 275 275 277 277 276 276 276 279 283 283 282 281 281 284 288 292 296 302 308 313 316 315 314 314 311 306 306 307 308 308 306 304 302 300 298 297 296 295 294 293 291 291 292 292 293 293 293 292 292 292 293 293 294 294 292
235 231 228 230 239 236 234 237 239 237 238 240 239 237 237 238 239 244 251 255 261 267 271 274 276 275 274 273 271 272 272 272 274 275 275 276 277 280 282 283 282 283 286 289 291 296 301 306 312 315 318 318 318 319 315 309 309 308 306 306 307 307 305 304 305 304 302 301 301 301 301 301 301 301 300 301 301 300 299 298 297 298 298 296 295
239 230 227 226 233 236 232 233 236 238 242 244 241 238 239 241 244 249 255 258 264 269 270 270 271 272 271 270 270 271 272 273 275 277 276 273 275 278 279 282 287 290 293 295 296 301 306 310 315 317 319 322 323 324 320 316 316 317 314 311 310 311 312 314 317 316 312 310 309 309 309 308 308 309 310 312 313 312 309 305 303 302 301 299 296
242 233 225 219 220 226 227 227 231 237 240 239 236 237 241 246 249 253 255 258 262 264 266 269 269 269 270 271 271 271 270 271 273 274 274 274 275 280 284 290 296 298 300 302 306 310 312 314 317 317 320 325 326 328 328 326 324 324 321 320 323 327 325 327 330 327 324 322 317 315 314 312 313 315 315 317 317 314 308 303 302 301 300 300 299
242 236 231 221 215 218 221 223 227 231 232 233 237 241 244 247 250 251 251 255 259 262 265 267 265 264 263 258 255 256 258 265 271 272 274 279 283 289 296 303 307 308 310 311 312 315 316 318 320 319 321 326 329 329 329 328 326 325 325 324 327 331 329 331 334 328 322 320 316 318 318 313 316 320 316 313 310 304 305 308 309 307 305 307 310
241 235 232 222 214 217 222 226 229 230 230 239 248 249 246 248 251 252 253 255 256 257 256 252 246 241 233 229 235 248 259 270 281 284 284 289 293 295 301 309 311 311 311 312 313 318 322 323 322 320 321 326 329 326 325 325 325 324 324 322 323 326 324 327 333 327 320 318 317 323 329 323 327 335 330 323 315 309 312 319 320 318 314 313 313
236 232 224 217 215 219 227 231 234 237 242 249 253 250 249 252 254 253 252 248 238 230 223 212 204 204 211 225 233 250 275 282 287 293 303 306 305 305 308 311 311 306 305 309 313 317 321 324 324 322 323 326 330 330 327 326 323 320 317 316 318 323 324 326 335 340 330 322 320 329 343 335 330 334 333 327 322 320 322 324 324 323 320 317 316
233 231 222 218 219 222 228 232 236 243 248 247 246 247 248 249 249 242 229 214 199 193 190 188 192 197 189 202 210 228 263 275 290 304 313 312 309 308 308 307 307 302 300 305 312 315 318 322 324 325 325 326 329 331 329 326 323 319 315 314 318 323 326 327 334 345 340 327 322 327 337 337 329 328 328 323 319 321 323 325 326 326 324 324 326
237 233 222 217 219 223 229 233 238 244 245 242 240 240 238 236 232 213 191 180 179 181 182 184 186 163 125 125 120 287 272 285 302 309 312 310 307 306 301 295 295 293 292 298 306 310 310 310 316 324 326 325 327 330 329 327 327 322 317 317 318 321 324 324 327 335 336 327 318 319 330 338 331 328 332 328 322 322 322 324 327 326 325 326 330
236 226 217 217 221 227 232 235 238 240 239 236 233 226 222 217 201 180 169 172 173 165 163 165 156 122 92 61 14 342 319 316 317 318 318 314 308 302 291 285 282 279 279 287 296 299 293 293 310 322 326 326 327 332 333 331 330 328 326 328 323 317 316 317 323 330 330 324 317 315 325 334 329 326 331 331 327 327 326 327 329 327 324 325 329
228 220 219 223 225 228 231 231 232 233 230 225 217 209 204 191 175 166 165 164 153 143 146 149 141 130 117 80 42 18 359 349 343 337 331 321 307 292 284 281 272 265 270 277 286 290 277 286 312 322 325 325 326 329 330 328 329 332 335 333 323 313 314 318 322 324 321 317 316 318 323 328 325 323 326 329 328 329 329 329 329 327 324 323 326
226 223 224 225 223 222 224 224 225 223 216 206 197 190 183 171 164 165 162 151 145 145 140 120 107 118 122 82 42 25 17 10 1 354 351 345 321 296 287 279 267 268 276 270 263 273 283 297 314 320 321 320 317 316 317 318 323 331 331 325 316 312 313 314 313 314 314 314 315 317 320 322 322 321 322 324 324 325 328 329 326 325 323 321 322
225 222 219 218 218 218 218 217 214 207 197 190 184 177 169 163 163 165 159 154 154 145 122 104 102 106 87 37 21 19 13 6 2 2 6 6 352 324 300 282 273 280 289 273 269 287 298 304 310 315 318 319 314 311 312 313 316 318 318 314 310 309 310 308 306 308 315 321 321 320 320 319 319 319 320 321 321 321 324 326 325 326 326 324 321
222 217 213 212 212 213 210 204 196 187 182 182 178 169 163 164 165 162 161 162 157 140 124 118 108 74 34 9 4 4 1 359 2 6 11 14 6 344 314 291 285 288 293 293 294 298 301 301 301 305 312 316 314 311 311 312 312 309 308 309 307 308 312 315 315 314 318 326 326 322 318 317 318 319 317 316 317 319 322 326 328 328 325 320 315
217 212 210 208 203 198 193 185 178 178 179 178 172 166 166 168 166 164 167 166 159 156 156 154 140 28 353 345 348 352 354 358 4 9 15 20 15 354 323 307 298 293 299 308 305 300 299 299 298 299 304 310 311 310 310 312 313 311 314 318 318 317 318 319 318 316 318 327 329 322 317 316 319 322 319 315 314 317 322 325 325 324 323 317 311
212 206 203 200 191 180 176 174 172 175 178 170 164 165 168 169 169 170 172 172 171 177 184 191 207 247 307 327 338 346 351 356 5 15 22 23 26 29 5 328 312 325 350 345 331 319 313 310 309 310 313 316 315 313 315 320 322 323 329 335 334 329 325 322 322 322 325 334 336 327 320 320 324 327 327 324 321 319 319 321 320 321 324 321 315